Location: USNO
(38.9242°N, 77.0663°W)
Time: 12:18:55
(UTC-04:00)

Tiangong 2 - Pass Details

Date: 11 October 2017
Orbit: 388 x 392 km, 42.8° (Epoch: 20 October)

Event Time Altitude Azimuth Distance (km) Brightness Sun altitude
Exits shadow 04:38:50 11° 82° (E) 1,366 4.7 -30.7°
Drops below altitude 10° 04:38:53 11° 82° (E) 1,387 4.7 -30.7°
Sets 04:41:08 0° 73° (ENE) 2,278 6.2 -30.3°
